Medford, OR

9:46 PM PDT on April 23, 2017 (GMT -0700)
Rogue Valley International-Medford

Weather History for KMFR - January, 2013

Change the Weather History Date:

Sunday, January 6, 2013

  Actual Average Record
Temperature  
Mean Temperature 40 °F 39 °F  
Max Temperature 44 °F 46 °F 65 °F (1914)
Min Temperature 35 °F 32 °F 6 °F (2017)
Degree Days  
Heating Degree Days 25 26  
Month to date heating degree days 171 156  
Since 1 July heating degree days 1723 1922  
Cooling Degree Days 0 0  
Month to date cooling degree days 0 0  
Year to date cooling degree days 0 0  
Moisture  
Dew Point 36 °F    
Average Humidity 91    
Maximum Humidity 100    
Minimum Humidity 82    
Precipitation  
Precipitation T in 0.09 in 1.10 in (1948)
Month to date precipitation 0.06 0.54  
Year to date precipitation 0.06 0.54  
Snow  
Snow 0.00 in 0.00 in - ()
Month to date snowfall 0.0 0.3  
Since 1 July snowfall 1.2 2.0  
Snow Depth 0.00 in    
Sea Level Pressure  
Sea Level Pressure 30.21 in    
Wind  
Wind Speed 1 mph (NW)    
Max Wind Speed 6 mph    
Max Gust Speed 32 mph    
Visibility 4 miles    
Events Fog , Rain    
T = Trace of Precipitation, MM = Missing Value Source: NWS Daily Summary

Daily Weather History Graph

Daily Weather History Graph

Search for Another Location

Airport or City:

Trip Planner

Search our weather history database for the weather conditions in past years. The results will help you decide how hot, cold, wet, or windy it might be!

Date:

Astronomy

Jan. 06, 2013 Rise Set
Actual Time 7:40 AM PST 4:54 PM PST
Civil Twilight 7:09 AM PST 5:26 PM PST
Nautical Twilight 6:33 AM PST 6:01 PM PST
Astronomical Twilight 6:00 AM PST 6:35 PM PST
Moon 1:58 AM PST (1/6) 12:27 PM PST (1/6)
Length of Visible Light 10h 17m
Length of Day
9h 14m
Waning Crescent, 32% of the Moon is Illuminated
Jan 6
Waning Crescent
Jan 11
New
Jan 18
First Quarter
Jan 26
Full
Feb 3
Last Quarter

Hourly Weather History & Observations

Time (PST) Temp. Windchill Dew Point Humidity Pressure Visibility Wind Dir Wind Speed Gust Speed Precip Events Conditions
12:22 AM 35.6 °F 32.8 °F 35.6 °F 100% 30.16 in 1.5 mi South 3.5 mph - N/A   Overcast
12:50 AM 35.6 °F - 35.6 °F 100% 30.15 in 0.8 mi Calm Calm - N/A   Overcast
12:53 AM 35.1 °F - 35.1 °F 100% 30.18 in 1.0 mi Calm Calm - N/A   Overcast
1:04 AM 35.6 °F - 33.8 °F 93% 30.15 in 0.5 mi Calm Calm - N/A Fog Fog
1:31 AM 35.6 °F - 35.6 °F 100% 30.16 in 1.2 mi Calm Calm - N/A   Overcast
1:39 AM 35.6 °F - 33.8 °F 93% 30.16 in 1.2 mi Calm Calm - N/A   Overcast
1:53 AM 36.0 °F - 35.1 °F 97% 30.19 in 1.2 mi Calm Calm - N/A   Overcast
2:08 AM 35.6 °F - 33.8 °F 93% 30.17 in 0.8 mi Calm Calm - N/A   Overcast
2:27 AM 35.6 °F - 33.8 °F 93% 30.17 in 1.0 mi Calm Calm - N/A   Overcast
2:53 AM 36.0 °F - 35.1 °F 97% 30.20 in 2.0 mi Calm Calm - N/A   Overcast
3:09 AM 35.6 °F - 33.8 °F 93% 30.19 in 2.5 mi Calm Calm - N/A   Overcast
3:34 AM 35.6 °F - 35.6 °F 100% 30.19 in 1.8 mi Calm Calm - N/A   Overcast
3:42 AM 35.6 °F - 35.6 °F 100% 30.19 in 2.5 mi Calm Calm - N/A   Overcast
3:53 AM 36.0 °F - 34.0 °F 93% 30.22 in 2.5 mi Calm Calm - N/A   Overcast
4:01 AM 35.6 °F - 33.8 °F 93% 30.19 in 3.0 mi Calm Calm - N/A   Overcast
4:36 AM 35.6 °F - 33.8 °F 93% 30.19 in 2.5 mi Calm Calm - N/A   Overcast
4:53 AM 36.0 °F - 35.1 °F 97% 30.21 in 2.5 mi Calm Calm - N/A   Overcast
5:05 AM 35.6 °F - 35.6 °F 100% 30.18 in 2.5 mi Calm Calm - N/A   Overcast
5:16 AM 35.6 °F - 35.6 °F 100% 30.18 in 2.5 mi Calm Calm - N/A   Overcast
5:24 AM 35.6 °F - 35.6 °F 100% 30.18 in 3.0 mi Calm Calm - N/A   Overcast
5:43 AM 35.6 °F - 35.6 °F 100% 30.18 in 2.0 mi Calm Calm - 0.00 in Rain Light Rain
5:53 AM 36.0 °F - 35.1 °F 97% 30.19 in 1.8 mi Calm Calm - 0.00 in Rain Light Rain
5:58 AM 35.6 °F - 35.6 °F 100% 30.17 in 2.0 mi Calm Calm - 0.00 in Rain Light Rain
6:36 AM 35.6 °F 31.7 °F 33.8 °F 93% 30.18 in 1.0 mi NNW 4.6 mph - 0.00 in   Mostly Cloudy
6:51 AM 35.6 °F 32.8 °F 33.8 °F 93% 30.18 in 3.0 mi North 3.5 mph - 0.00 in   Overcast
6:52 AM 35.1 °F 32.2 °F 34.0 °F 96% 30.20 in 3.0 mi North 3.5 mph - 0.00 in   Overcast
7:45 AM 35.6 °F 32.8 °F 35.6 °F 100% 30.22 in 4.0 mi NW 3.5 mph - N/A   Overcast
7:53 AM 36.0 °F - 35.1 °F 97% 30.25 in 2.0 mi Calm Calm - N/A   Overcast
8:53 AM 37.0 °F - 36.0 °F 96% 30.26 in 3.0 mi Calm Calm - N/A   Overcast
9:53 AM 39.0 °F - 36.0 °F 89% 30.27 in 6.0 mi Calm Calm - N/A   Overcast
10:23 AM 39.2 °F - 37.4 °F 93% 30.25 in 6.0 mi Calm Calm - N/A   Overcast
10:43 AM 39.2 °F - 37.4 °F 93% 30.25 in 7.0 mi Calm Calm - N/A   Overcast
10:53 AM 39.9 °F - 37.0 °F 89% 30.27 in 7.0 mi Calm Calm - N/A   Overcast
11:53 AM 41.0 °F 39.0 °F 37.0 °F 86% 30.26 in 8.0 mi North 3.5 mph - N/A   Overcast
12:29 PM 41.0 °F - 37.4 °F 87% 30.22 in 7.0 mi Calm Calm - N/A   Overcast
12:53 PM 42.1 °F - 37.0 °F 82% 30.23 in 8.0 mi Calm Calm - N/A   Overcast
1:53 PM 43.0 °F - 37.0 °F 80% 30.23 in 8.0 mi Calm Calm - N/A   Overcast
2:00 PM 42.8 °F - 37.4 °F 81% 30.20 in 8.0 mi Calm Calm - N/A   Overcast
2:53 PM 43.0 °F - 37.0 °F 80% 30.24 in 9.0 mi Calm Calm - N/A   Overcast
3:53 PM 43.0 °F - 37.0 °F 80% 30.22 in 10.0 mi Calm Calm - N/A   Overcast
4:53 PM 42.1 °F - 37.9 °F 85% 30.23 in 9.0 mi Calm Calm - N/A   Mostly Cloudy
5:53 PM 39.0 °F - 37.0 °F 93% 30.23 in 7.0 mi Calm Calm - N/A   Partly Cloudy
6:53 PM 37.9 °F 35.5 °F 36.0 °F 93% 30.26 in 6.0 mi South 3.5 mph - N/A   Partly Cloudy
7:36 PM 37.4 °F 33.8 °F 35.6 °F 93% 30.22 in 5.0 mi SSE 4.6 mph - N/A   Mostly Cloudy
7:53 PM 37.9 °F 33.5 °F 36.0 °F 93% 30.24 in 4.0 mi South 5.8 mph - N/A   Overcast
8:53 PM 37.0 °F - 36.0 °F 96% 30.26 in 5.0 mi Calm Calm - N/A   Mostly Cloudy
9:53 PM 37.0 °F - 35.1 °F 93% 30.26 in 4.0 mi Calm Calm - N/A   Overcast
10:53 PM 37.0 °F - 36.0 °F 96% 30.25 in 5.0 mi Calm Calm - N/A   Overcast
11:53 PM 37.9 °F - 35.1 °F 89% 30.25 in 5.0 mi Calm Calm - N/A   Overcast